FREGAT DEB (TANK), 41108

Orbit data source: Space-Track

FREGAT DEB (TANK), 41108 is space debris in LEO originally from a launch on Fri, 11 Dec 2015 UTC launched from the Tyuratam Missile And Space Complex (TTMTR). Debris objects in space refer to the collection of defunct objects orbiting the Earth. Examples of debris include non-operational satellites, rocket bodies, and fragments generated from explosions, collisions, or faulty payload assembly.

Loading next visibility...
Identifier
41108, 2015-074D
Orbit
LEO
Country
Flag of CISCIS
Related business
Manufacturer
Lavochkin
Mission
Spacecraft
Bus & Motor
FREGAT SBB, Unknown motor
Mass
360 kg wet, 360 kg dry
Launch date (UTC)
2015-12-11 (10 years ago)
Launch vehicle
Unknown
Launch site
Tyuratam Missile And Space Complex (TTMTR)
Object type
Payload
Rocket body
Debris
Shape & HBR
Torus, 1.9 m
Radar Cross Section
6.703 m², Large (>1 m²)

Expand to show TLE details & history
Last TLE update: 4 hours ago

TLE from 4 hours ago
0 FREGAT DEB (TANK)
1 41108U 15074D   25343.65221227  .00059713  70144-5  80423-3 0  9991
2 41108  50.2999  88.4086 1174907  63.3686 308.2668 13.32329115424424
Epoch: 2025-12-09T15:39Z
TLE epoch observation values (Epoch: 2025-12-09T15:39:11.140Z)
Latitude
Longitude
134.97836°
Altitude
662.794 km
Speed
7.761 km/s
True Right ascension
05h 53m 38s
True Declination
0° 00' 00"
Sunlit
Object was in full shadow at epoch
Visualization orbit readout
Latitude
Unknown
Longitude
Unknown
Altitude
Unknown
Speed
Unknown
Apparent Right ascension
Unknown
Apparent Declination
Unknown
Sunlit
N/A
Visualization observer readout
Local Sidereal Time
17:42:22
Azimuth
Unknown
Elevation
Unknown
Doppler factor
Unknown
Orbital elements
Apogee altitude
2,021.82 km
Perigee altitude
255.511 km
Semi-major axis
7,516.803 km
Eccentricity
0.11749
Inclination
50.2999°
RAAN
88.4086°
Arg. of periapsis
63.3686°
True anomaly
296.72268°
Mean anomaly
308.2668°
Eccentric anomaly
302.59535°
Mean motion
3.33038 °/min
Orbital period
108.1 mins
BSTAR
0.00080423
Loading maneuver chart data...
Computing Atmospheric mass density...
Loading historical data...
Loading historical data...
Loading historical data...
Loading historical data...
Loading historical data...
Loading historical data...
Loading historical data...

Documentation

Showing up to 5 results
|